Flag for U.S.A. Weather past 2 weeks in Des Moines, Iowa, U.S.A.

Now
69 °F

Passing clouds.


Feels Like: 69 °F
Forecast: 65 / 87 °F
Wind: 6 mph from South

Location: Des Moines International Airport

Current Time: Aug 31, 2015 at 12:40:15 AM

Latest Report: Aug 30, 2015 at 11:54 PM


Visibility: 7 mi

Pressure: 29.98 "Hg

Humidity: 90%

Dew point: 66 °F

Location of Des MoinesLocation

Historic Weather in Des Moines — Graph

°F

Des Moines temperature yesterday

Maximum temperature yesterday: 78 °F (at 3:54 PM)
Minimum temperature yesterday: 61 °F (at 5:01 AM)
Average temperature yesterday: 69 °F

Past Weeks' High & Low Weather Summary

 TemperatureHumidityPressure
High88 °F (Aug 16, 2:54 PM)94% (Aug 29, 3:54 AM)30.20 "Hg (Aug 29, 3:54 AM)
Low53 °F (Aug 20, 5:54 AM)33% (Aug 25, 3:54 PM)29.61 "Hg (Aug 18, 5:54 PM)
Average69 °F71%29.96 "Hg
* Reported Aug 15 10:54 PM — Aug 30 10:54 PM, Des Moines, Weather by CustomWeather, © 2015

Note: Actual official high and low records may vary slightly from our data, if they occured in-between our weather recording intervals... More about our weather records

Advertising

Des Moines weather history for previous 24 hours

 ConditionsComfort  
Time TempWeatherWind HumidityBarometerVisibility
10:54 PM
Sun, Aug 30
70 °FPassing clouds.7 mph87%29.97 "Hg8 mi
9:54 PM72 °FPassing clouds.7 mph87%29.96 "Hg10 mi
8:54 PM73 °FClear.5 mph84%29.96 "Hg10 mi
7:54 PM75 °FSunny.6 mph79%29.96 "Hg10 mi
6:54 PM77 °FPartly sunny.6 mph71%29.96 "Hg10 mi
5:54 PM78 °FPassing clouds.6 mph69%29.98 "Hg10 mi
4:54 PM78 °FBroken clouds.6 mph69%29.99 "Hg10 mi
3:54 PM78 °FBroken clouds.7 mph66%30.00 "Hg10 mi
2:54 PM77 °FBroken clouds.3 mph71%30.01 "Hg10 mi
1:54 PM75 °FMore clouds than sun.3 mph71%30.04 "Hg10 mi
12:54 PM74 °FMore clouds than sun.6 mph76%30.05 "Hg10 mi
11:54 AM71 °FLow clouds.7 mph81%30.06 "Hg10 mi
10:54 AM67 °FFog.7 mph90%30.07 "Hg6 mi
9:54 AM65 °FFog.3 mph94%30.05 "Hg1 mi
8:54 AM64 °FDrizzle. Fog.3 mph94%30.05 "Hg0 mi
7:54 AM63 °FFog.No wind93%30.04 "Hg1 mi
6:54 AM62 °FFog.No wind90%30.04 "Hg0 mi
5:54 AM61 °FFog.No wind93%30.02 "Hg1 mi
5:01 AM61 °FFog.No wind93%30.03 "Hg1 mi
3:54 AM62 °FFog.No wind90%30.02 "Hg3 mi
2:54 AM63 °FPassing clouds.No wind87%30.02 "Hg9 mi
1:54 AM66 °FPassing clouds.3 mph87%30.02 "Hg10 mi
12:54 AM65 °FPassing clouds.3 mph91%30.03 "Hg10 mi
Weather by CustomWeather, © 2015

See weather overviewHow to use our weather pages